Weather History for KSCF - April, 2014

Change the Weather History Date:

Tuesday, April 15, 2014

  Actual Average Record
Temperature  
Mean Temperature 55 °F -  
Max Temperature 60 °F - - ()
Min Temperature 50 °F - - ()
Degree Days  
Heating Degree Days 10    
Growing Degree Days 5 (Base 50)    
Moisture  
Dew Point 40 °F    
Average Humidity 59    
Maximum Humidity 88    
Minimum Humidity 36    
Precipitation  
Precipitation 0.00 in - - ()
Sea Level Pressure  
Sea Level Pressure 30.11 in    
Wind  
Wind Speed 18 mph (North)    
Max Wind Speed 33 mph    
Max Gust Speed 41 mph    
Visibility 10 miles    
Events      
T = Trace of Precipitation, MM = Missing Value Source: NWS Daily Summary

Daily Weather History Graph

Daily Weather History Graph

Search for Another Location

Airport or City:

Trip Planner

Search our weather history database for the weather conditions in past years. The results will help you decide how hot, cold, wet, or windy it might be!

Date:

Astronomy

Apr. 15, 2014 Rise Set
Actual Time 6:41 AM CDT 7:33 PM CDT
Civil Twilight 6:17 AM CDT 7:58 PM CDT
Nautical Twilight 5:48 AM CDT 8:26 PM CDT
Astronomical Twilight 5:19 AM CDT 8:56 PM CDT
Moon 8:11 PM CDT (4/15) 6:50 AM CDT (4/15)
Length of Visible Light 13h 41m
Length of Day
12h 52m
Full, 100% of the Moon is Illuminated
Apr 15
Full
Apr 22
Last Quarter
Apr 29
New
May 6
First Quarter
May 14
Full

Hourly Weather History & Observations

Time (CDT) Temp. Dew Point Humidity Pressure Visibility Wind Dir Wind Speed Gust Speed Precip Events Conditions
12:15 AM 57.2 °F 51.8 °F 82% 29.99 in 10.0 mi NNW 15.0 mph 34.5 mph N/A   Overcast
12:35 AM 57.2 °F 53.6 °F 88% 29.99 in 10.0 mi NNW 18.4 mph 32.2 mph N/A   Overcast
12:55 AM 57.2 °F 51.8 °F 82% 29.99 in 10.0 mi North 12.7 mph 25.3 mph N/A   Overcast
1:15 AM 57.2 °F 51.8 °F 82% 29.99 in 10.0 mi North 15.0 mph 32.2 mph N/A   Overcast
1:35 AM 55.4 °F 51.8 °F 88% 29.99 in 10.0 mi NNW 16.1 mph 32.2 mph N/A   Overcast
1:55 AM 55.4 °F 50.0 °F 82% 29.98 in 9.0 mi NNW 16.1 mph 35.7 mph N/A   Overcast
2:15 AM 55.4 °F 51.8 °F 88% 29.99 in 9.0 mi NNW 23.0 mph 36.8 mph N/A   Overcast
2:35 AM 55.4 °F 50.0 °F 82% 30.00 in 9.0 mi North 13.8 mph 33.4 mph N/A   Overcast
2:55 AM 55.4 °F 48.2 °F 77% 30.01 in 10.0 mi NNW 13.8 mph 33.4 mph N/A   Overcast
3:15 AM 53.6 °F 48.2 °F 82% 30.01 in 9.0 mi NNW 24.2 mph 38.0 mph N/A   Overcast
3:35 AM 53.6 °F 46.4 °F 77% 30.02 in 10.0 mi NW 33.4 mph 41.4 mph N/A   Overcast
3:55 AM 53.6 °F 48.2 °F 82% 30.02 in 10.0 mi NNW 21.9 mph 40.3 mph N/A   Overcast
4:15 AM 51.8 °F 46.4 °F 82% 30.03 in 10.0 mi North 16.1 mph 35.7 mph N/A   Overcast
4:35 AM 51.8 °F 44.6 °F 76% 30.03 in 10.0 mi NNW 17.3 mph 28.8 mph N/A   Overcast
4:55 AM 51.8 °F 44.6 °F 76% 30.04 in 10.0 mi North 13.8 mph 36.8 mph N/A   Overcast
5:15 AM 51.8 °F 44.6 °F 76% 30.04 in 10.0 mi NNW 21.9 mph 36.8 mph N/A   Overcast
5:35 AM 51.8 °F 42.8 °F 71% 30.05 in 10.0 mi North 15.0 mph 29.9 mph N/A   Overcast
5:55 AM 51.8 °F 42.8 °F 71% 30.06 in 10.0 mi NNW 18.4 mph 31.1 mph N/A   Overcast
6:15 AM 51.8 °F 42.8 °F 71% 30.07 in 10.0 mi North 16.1 mph 24.2 mph N/A   Overcast
6:35 AM 51.8 °F 42.8 °F 71% 30.08 in 10.0 mi NNW 18.4 mph 36.8 mph N/A   Overcast
6:55 AM 50.0 °F 41.0 °F 71% 30.10 in 10.0 mi North 16.1 mph 24.2 mph N/A   Overcast
7:15 AM 50.0 °F 41.0 °F 71% 30.11 in 10.0 mi NNW 17.3 mph 36.8 mph N/A   Overcast
7:35 AM 50.0 °F 41.0 °F 71% 30.12 in 10.0 mi North 17.3 mph 28.8 mph N/A   Overcast
7:55 AM 50.0 °F 41.0 °F 71% 30.12 in 9.0 mi NNW 13.8 mph 26.5 mph N/A   Overcast
8:15 AM 50.0 °F 41.0 °F 71% 30.13 in 10.0 mi North 16.1 mph 34.5 mph N/A   Overcast
8:35 AM 50.0 °F 41.0 °F 71% 30.14 in 10.0 mi NNW 17.3 mph 33.4 mph N/A   Overcast
8:55 AM 50.0 °F 41.0 °F 71% 30.15 in 9.0 mi NNW 18.4 mph 35.7 mph N/A   Overcast
9:15 AM 50.0 °F 41.0 °F 71% 30.16 in 10.0 mi North 19.6 mph 40.3 mph N/A   Mostly Cloudy
9:35 AM 50.0 °F 41.0 °F 71% 30.16 in 10.0 mi North 18.4 mph 29.9 mph N/A   Mostly Cloudy
9:55 AM 50.0 °F 41.0 °F 71% 30.17 in 10.0 mi North 15.0 mph 33.4 mph N/A   Scattered Clouds
10:15 AM 51.8 °F 39.2 °F 62% 30.17 in 10.0 mi North 17.3 mph 26.5 mph N/A   Scattered Clouds
10:35 AM 51.8 °F 41.0 °F 67% 30.18 in 10.0 mi North 13.8 mph 33.4 mph N/A   Mostly Cloudy
10:55 AM 51.8 °F 41.0 °F 67% 30.18 in 10.0 mi North 18.4 mph 28.8 mph N/A   Mostly Cloudy
11:15 AM 51.8 °F 41.0 °F 67% 30.17 in 10.0 mi North 13.8 mph 29.9 mph N/A   Scattered Clouds
11:35 AM 53.6 °F 41.0 °F 62% 30.16 in 10.0 mi North 20.7 mph 31.1 mph N/A   Partly Cloudy
11:55 AM 51.8 °F 41.0 °F 67% 30.16 in 10.0 mi North 17.3 mph 32.2 mph N/A   Clear
12:35 PM 53.6 °F 41.0 °F 62% 30.15 in 10.0 mi North 15.0 mph 29.9 mph N/A   Clear
12:55 PM 55.4 °F 39.2 °F 54% 30.15 in 10.0 mi North 13.8 mph 25.3 mph N/A   Clear
1:15 PM 55.4 °F 37.4 °F 51% 30.15 in 10.0 mi North 16.1 mph 29.9 mph N/A   Clear
1:35 PM 55.4 °F 33.8 °F 44% 30.15 in 10.0 mi North 21.9 mph 32.2 mph N/A   Clear
1:55 PM 57.2 °F 33.8 °F 41% 30.16 in 10.0 mi North 12.7 mph 25.3 mph N/A   Clear
2:15 PM 57.2 °F 32.0 °F 38% 30.16 in 10.0 mi North 15.0 mph 28.8 mph N/A   Clear
2:35 PM 59.0 °F 33.8 °F 39% 30.15 in 10.0 mi NNW 12.7 mph 27.6 mph N/A   Clear
2:55 PM 59.0 °F 32.0 °F 36% 30.15 in 10.0 mi North 10.4 mph 25.3 mph N/A   Clear
3:15 PM 59.0 °F 33.8 °F 39% 30.14 in 10.0 mi North 13.8 mph 26.5 mph N/A   Clear
3:35 PM 59.0 °F 33.8 °F 39% 30.13 in 10.0 mi NNW 13.8 mph 28.8 mph N/A   Clear
3:55 PM 59.0 °F 33.8 °F 39% 30.12 in 10.0 mi North 16.1 mph 26.5 mph N/A   Clear
4:15 PM 60.8 °F 33.8 °F 36% 30.13 in 10.0 mi North 16.1 mph 24.2 mph N/A   Clear
4:35 PM 60.8 °F 35.6 °F 39% 30.13 in 10.0 mi North 9.2 mph 23.0 mph N/A   Clear
4:55 PM 60.8 °F 35.6 °F 39% 30.13 in 10.0 mi NNW 11.5 mph 25.3 mph N/A   Clear
5:15 PM 60.8 °F 35.6 °F 39% 30.13 in 10.0 mi North 8.1 mph 25.3 mph N/A   Clear
5:35 PM 60.8 °F 33.8 °F 36% 30.13 in 10.0 mi North 9.2 mph 20.7 mph N/A   Clear
5:55 PM 60.8 °F 33.8 °F 36% 30.13 in 10.0 mi North 12.7 mph 21.9 mph N/A   Clear
6:15 PM 60.8 °F 33.8 °F 36% 30.13 in 10.0 mi North 12.7 mph 24.2 mph N/A   Clear
6:35 PM 59.0 °F 33.8 °F 39% 30.13 in 10.0 mi North 13.8 mph 28.8 mph N/A   Clear
6:55 PM 59.0 °F 33.8 °F 39% 30.13 in 10.0 mi North 20.7 mph 31.1 mph N/A   Clear
7:15 PM 59.0 °F 32.0 °F 36% 30.13 in 10.0 mi North 20.7 mph 31.1 mph N/A   Clear
7:35 PM 59.0 °F 33.8 °F 39% 30.13 in 10.0 mi North 18.4 mph 31.1 mph N/A   Clear
7:55 PM 57.2 °F 33.8 °F 41% 30.14 in 10.0 mi North 24.2 mph 33.4 mph N/A   Clear
8:15 PM 57.2 °F 33.8 °F 41% 30.14 in 10.0 mi North 25.3 mph 33.4 mph N/A   Clear
8:35 PM 57.2 °F 32.0 °F 38% 30.14 in 10.0 mi North 24.2 mph 35.7 mph N/A   Clear
8:55 PM 57.2 °F 33.8 °F 41% 30.15 in 10.0 mi North 28.8 mph 34.5 mph N/A   Clear
9:15 PM 57.2 °F 33.8 °F 41% 30.16 in 10.0 mi North 26.5 mph 32.2 mph N/A   Clear
9:35 PM 57.2 °F 35.6 °F 44% 30.15 in 10.0 mi NNE 28.8 mph - N/A   Clear
9:55 PM 57.2 °F 35.6 °F 44% 30.14 in 10.0 mi NNE 29.9 mph - N/A   Clear
10:15 PM 57.2 °F 37.4 °F 48% 30.14 in 10.0 mi NNE 29.9 mph - N/A   Unknown
10:35 PM 55.4 °F 35.6 °F 47% 30.15 in 10.0 mi NNE 27.6 mph - N/A   Clear
10:55 PM 55.4 °F 35.6 °F 47% 30.14 in 10.0 mi NE 26.5 mph - N/A   Clear
11:15 PM 55.4 °F 35.6 °F 47% 30.15 in 10.0 mi NNE 26.5 mph - N/A   Clear
11:35 PM 55.4 °F 37.4 °F 51% 30.16 in 10.0 mi NNE 24.2 mph 31.1 mph N/A   Clear
11:55 PM 55.4 °F 35.6 °F 47% 30.17 in 10.0 mi NE 21.9 mph 28.8 mph N/A   Clear